Location: Neuvy Saint Sepulchre
(46.5953°N, 1.8122°E)
Time: 08:16:34
(UTC+02:00)

ISS - Pass Details

Date: 17 July 2021
Orbit: 419 x 421 km, 51.6° (Epoch: 03 August)

Event Time Altitude Azimuth Distance (km) Brightness Sun altitude
Rises 22:55:02 0° 250° (WSW) 2,364 0.4 -10.6°
Reaches altitude 10° 22:57:08 10° 254° (WSW) 1,502 -0.6 -10.9°
Maximum altitude 23:00:30 67° 337° (NNW) 461 -3.3 -11.3°
Drops below altitude 10° 23:03:52 10° 61° (ENE) 1,506 -1.1 -11.7°
Sets 23:05:59 0° 64° (ENE) 2,372 -0.1 -11.9°
